Location: Six Mile Lake
(44.9000°N, 79.7170°W)
Time: 07:10:08
(UTC-04:00)

O/OREOS (USA 219) - Pass Details

Date: 02 July 2022
Orbit: 621 x 646 km, 72.0° (Epoch: 22 May)

Event Time Altitude Azimuth Distance (km) Brightness Sun altitude
Rises 01:58:18 0° 331° (NNW) 2,964 ? -21.6°
Reaches altitude 10° 02:00:38 10° 326° (NNW) 2,051 ? -21.5°
Maximum altitude 02:05:06 51° 251° (WSW) 814 ? -21.4°
Enters shadow 02:05:28 50° 234° (SW) 828 ? -21.4°
